Shreveport, LA (71136)

9:18 AM CDT on April 25, 2018 (GMT -0500)
Central Bossier | | Change Station
Active Advisory: Flood Warning

Elev 177 ft 32.52 °N, 93.71 °W | Updated 9 minutes ago

Clear
Clear
70.0 °F
Feels Like 70.0 °F
N
0.0
Wind Variable Wind from West

Today
High -- | Low -- °F
--% Chance of Precip.
Yesterday
High -- | Low -- °F
Precip. -- in
Pressure 30.05 in
Visibility 10.0 miles
Clouds Clear
Dew Point 57 °F
Humidity 64%
Rainfall 0.00 in
Snow Depth Not available.
6:34 AM 7:52 PM
Waxing Gibbous, 79% visible
METAR KDTN 251353Z 00000KT 10SM CLR 18/13 A3006 RMK AO2 SLP175 T01830128
Pressure 30.05 in
Visibility 10.0 miles
Clouds Clear
Dew Point 57 °F
Humidity 64%
Rainfall 0.00 in
Snow Depth Not available.
6:34 AM 7:52 PM
Waxing Gibbous, 79% visible
METAR KDTN 251353Z 00000KT 10SM CLR 18/13 A3006 RMK AO2 SLP175 T01830128

Get Your Daily Forecast Email!

Thanks for signing up!

Be on the lookout for a verification email in your inbox.

You'll start receiving severe weather alerts in your inbox..

×

10-Day Weather Forecast

Almanac

Astronomy

Apr. 25, 2018 Rise Set
Actual Time
Civil Twilight
Nautical Twilight
Astronomical Twilight
Moon
Length of Visible Light
Length of Day
Tomorrow will be .
, % of the Moon is Illuminated

Today's Extremes

State Highs State Lows

Community

WunderPhotos

Category 6

Welcome to Category 6. This is the collective home for Weather Underground's featured writeups by Dr. Jeff Masters (right), Bob Henson (left), Chris Burt, and other regular contributors.

Nearby

Air Quality

  Air Quality AQ Index Pollutant
Not available.

Snow Depth

Station Depth Elevation

Earthquake Activity

City Distance Mag. Time & Date
Minimum magnitude displayed is 2.5.

Coastal Water Temperatures

Place Temperature

Stations

Nearby Weather Stations

Station Location Temp. Windchill Dew Point Humidity Wind Precip. Elev Updated Type
                   

Watches & Warnings

Flood Warning
Issued: 11:21 AM CDT Apr. 24, 2018 – National Weather Service

The Flood Warning continues for
the Bodcau bayou at bayou Bodcau Lake, Louisiana.
* Until further notice... or until the warning is cancelled.
* At 10:00 am Tuesday the pool stage was 181.1 feet.
* Minor flooding is occurring and minor flooding is forecast.
* Flood pool stage is 172 feet.
* Forecast... the lake will continue to fall to a stage of 180.9 feet
by Wednesday morning.


Lat... Lon 3282 9351 3289 9344 3272 9346 3270 9351 3277 9351